GW4532 Weather Reports


time (UTC)temp
C
wind
direction
speed
KPH
gust
KPH
rain 1hr
cm
rain 24hr
cm
rain mn
cm
humidity
%
barometer
mb
20260906060020 20 0.0 0.0 0.00 0.25 0.00 93 1018.4
20260906055024 20 0.0 0.0 0.00 0.25 0.00 93 1018.4
20260906054027 19 0.0 0.0 0.00 0.25 0.00 93 1018.5
20260906053131 19 0.0 0.0 0.00 0.25 0.00 93 1018.5
20260906052016 19 0.0 0.0 0.00 0.25 0.00 93 1018.4
20260906051040 13 0.0 0.0 0.00 0.25 0.00 93 1018.5
20260906050024 20 0.0 0.0 0.00 0.25 0.00 92 1018.7
20260906045027 20 0.0 0.0 0.00 0.25 0.00 92 1018.8
20260906044031 20 0.0 0.0 0.00 0.25 0.00 92 1018.9
20260906043016 20 0.0 0.0 0.00 0.25 0.00 93 1018.9
20260906042140 20 0.0 0.0 0.00 0.25 0.00 93 1018.9
20260906041023 20 0.0 0.0 0.00 0.25 0.00 92 1018.9
20260906034031 20 0.0 0.0 0.00 0.25 0.25 91 1019.1
20260906033015 20 0.0 0.0 0.00 0.25 0.25 91 1019.4
20260906032025 21 0.0 0.0 0.00 0.25 0.25 91 1019.5
20260906031023 21 0.0 0.0 0.00 0.25 0.25 91 1019.4
20260906030121 21 0.0 0.0 0.00 0.25 0.25 91 1019.3
20260906025018 21 0.0 0.0 0.00 0.25 0.25 91 1019.2
20260906024015 21 0.0 0.0 0.00 0.25 0.25 91 1019.2
20260906023025 21 0.0 0.0 0.00 0.25 0.25 91 1019.1
20260906022028 21 0.0 0.0 0.00 0.25 0.25 91 1018.7
20260906021032 21 0.0 0.0 0.00 0.25 0.25 91 1018.9
20260906020018 21 0.0 0.0 0.00 0.25 0.25 91 1018.7
20260906015121 21 0.0 0.0 0.00 0.25 0.25 91 1018.7
20260906014025 21 0.0 0.0 0.00 0.25 0.25 89 1018.7
20260906013028 21 0.0 0.0 0.00 0.25 0.25 91 1018.7
20260906012032 22 0.0 0.0 0.00 0.25 0.25 91 1018.5
20260906011017 22 0.0 0.0 0.00 0.25 0.25 90 1018.2
20260906010020 22 0.0 0.0 0.00 0.25 0.25 90 1018.3
20260906005024 22 0.0 0.0 0.00 0.25 0.25 90 1018.1
20260906004048 22 0.0 0.0 0.00 0.25 0.25 90 1018.0
20260906003032 22 0.0 0.0 0.00 0.25 0.25 87 1018.1
20260906002034 22 0.0 0.0 0.00 0.25 0.25 88 1017.9
20260906001018 23 0.0 0.0 0.00 0.25 0.25 87 1017.8
20260906000021 23 0.0 0.0 0.00 0.25 0.25 86 1017.7
20260905235024 23 0.0 0.0 0.00 0.25 0.25 83 1017.6
20260905234027 23 0.0 0.0 0.00 0.25 0.25 81 1017.6
20260905233024 24 0.0 0.0 0.00 0.25 0.25 81 1017.7
20260905232022 25 0.0 0.0 0.00 0.25 0.25 80 1017.6
20260905231019 25 0.0 0.0 0.00 0.25 0.25 80 1017.5
20260905230017 25 0.0 0.0 0.00 0.25 0.25 77 1017.5
20260905225021 25 0.0 0.0 0.00 0.25 0.25 76 1017.6
20260905224024 25 0.0 0.0 0.00 0.25 0.25 75 1017.6
20260905223028 25 0.0 0.0 0.00 0.25 0.25 72 1017.5
20260905222031 26 0.0 0.0 0.00 0.25 0.25 68 1017.6
20260905221016 26 0.0 0.0 0.00 0.25 0.25 68 1017.7
20260905220120 26 0.0 0.0 0.00 0.25 0.25 68 1017.9
20260905215024 27 0.0 0.0 0.00 0.25 0.25 69 1018.0
20260905214027 27 0.0 0.0 0.00 0.25 0.25 67 1018.0
20260905213030 27 0.0 0.0 0.00 0.25 0.25 69 1018.1
20260905212017 27 0.0 0.0 0.00 0.25 0.25 70 1018.4
20260905211019 27 0.0 0.0 0.00 0.25 0.25 68 1018.3
20260905210023 26 0.0 0.0 0.00 0.25 0.25 70 1018.4
20260905205027 26 0.0 0.0 0.00 0.25 0.25 69 1018.4
20260905204030 27 0.0 0.0 0.00 0.25 0.25 68 1018.4
20260905203016 27 0.0 0.0 0.00 0.25 0.25 66 1018.5
20260905202019 27 0.0 0.0 0.00 0.25 0.25 61 1018.7
20260905201042 28 0.0 0.0 0.00 0.25 0.25 59 1018.7
20260905200024 30 0.0 0.0 0.00 0.25 0.25 52 1018.9
20260905195028 30 0.0 0.0 0.00 0.25 0.25 56 1018.9
20260905194025 19 0.0 0.0 0.00 0.25 0.25 65 1019.0
20260905193023 26 0.0 0.0 0.00 0.25 0.25 70 1019.3
20260905191018 25 0.0 0.0 0.00 0.25 0.25 72 1019.7
20260905190021 25 0.0 0.0 0.00 0.25 0.25 72 1019.9
20260905185025 25 0.0 0.0 0.00 0.25 0.25 74 1020.0
20260905184028 23 0.0 0.0 0.00 0.25 0.25 81 1019.9
20260905183032 22 0.0 0.0 0.25 0.25 0.25 81 1019.6
20260905182017 22 0.0 0.0 0.25 0.25 0.25 80 1019.9
20260905181021 23 0.0 0.0 0.25 0.25 0.25 79 1020.1
20260905180024 23 0.0 0.0 0.25 0.25 0.25 75 1020.0
20260905175028 24 0.0 0.0 0.25 0.25 0.25 71 1020.3
20260905174031 25 0.0 0.0 0.25 0.25 0.25 62 1020.3
20260905173017 29 1 6.4 12.9 0.00 0.00 0.00 49 1019.7
20260905172020 31 0.0 0.0 0.00 0.00 0.00 50 1019.3
20260905171124 30 0.0 0.0 0.00 0.00 0.00 56 1019.4
20260905170027 31 0.0 0.0 0.00 0.00 0.00 52 1019.3
20260905165031 33 0.0 0.0 0.00 0.00 0.00 49 1019.5
20260905164033 35 0.0 0.0 0.00 0.00 0.00 46 1019.7
20260905162021 34 0.0 0.0 0.00 0.00 0.00 49 1020.0
20260905161024 33 0.0 0.0 0.00 0.00 0.00 48 1020.0
20260905160027 33 0.0 0.0 0.00 0.00 0.00 49 1020.0
20260905155045 33 0.0 0.0 0.00 0.00 0.00 49 1020.0
20260905154022 33 0.0 0.0 0.00 0.00 0.00 50 1020.0
20260905153020 33 0.0 0.0 0.00 0.00 0.00 53 1020.1
20260905152017 32 0.0 0.0 0.00 0.00 0.00 56 1020.1
20260905151020 31 0.0 0.0 0.00 0.00 0.00 57 1020.1
20260905150024 30 0.0 0.0 0.00 0.00 0.00 59 1020.3
20260905145128 30 0.0 0.0 0.00 0.00 0.00 63 1020.3
20260905144031 28 0.0 0.0 0.00 0.00 0.00 67 1020.3
20260905143137 27 0.0 0.0 0.00 0.00 0.00 71 1020.3
20260905142020 26 0.0 0.0 0.00 0.00 0.00 74 1020.5
20260905141024 25 0.0 0.0 0.00 0.00 0.00 79 1020.7
20260905140027 23 0.0 0.0 0.00 0.00 0.00 83 1020.7
20260905135030 23 0.0 0.0 0.00 0.00 0.00 86 1020.8
20260905134016 22 0.0 0.0 0.00 0.00 0.00 86 1020.9
20260905133019 22 0.0 0.0 0.00 0.00 0.00 88 1021.0
20260905132023 22 0.0 0.0 0.00 0.00 0.00 89 1021.1
20260905131027 21 0.0 0.0 0.00 0.00 0.00 90 1021.1
20260905130130 21 0.0 0.0 0.00 0.00 0.00 91 1021.0
20260905125016 21 0.0 0.0 0.00 0.00 0.00 92 1021.0
20260905124019 20 0.0 0.0 0.00 0.00 0.00 92 1021.0
20260905123022 20 0.0 0.0 0.00 0.00 0.00 92 1020.9
20260905122025 20 0.0 0.0 0.00 0.00 0.00 92 1020.8
20260905121027 20 0.0 0.0 0.00 0.00 0.00 94 1020.8
20260905120025 20 0.0 0.0 0.00 0.00 0.00 94 1020.7
20260905115022 20 0.0 0.0 0.00 0.00 0.00 94 1020.6
20260905114020 20 0.0 0.0 0.00 0.00 0.00 94 1020.5
20260905113017 20 0.0 0.0 0.00 0.00 0.00 94 1020.3
20260905112021 20 0.0 0.0 0.00 0.00 0.00 94 1020.1
20260905111024 20 0.0 0.0 0.00 0.00 0.00 94 1019.9
20260905105031 20 0.0 0.0 0.00 0.00 0.00 94 1019.7
20260905104017 20 0.0 0.0 0.00 0.00 0.00 94 1019.7
20260905103020 20 0.0 0.0 0.00 0.00 0.00 94 1019.7
20260905102024 20 0.0 0.0 0.00 0.00 0.00 94 1019.7
20260905101027 20 0.0 0.0 0.00 0.00 0.00 94 1019.7
20260905100031 20 0.0 0.0 0.00 0.00 0.00 94 1019.6
20260905094020 20 0.0 0.0 0.00 0.00 0.00 94 1019.6
20260905093024 20 0.0 0.0 0.00 0.00 0.00 94 1019.5
20260905092128 20 0.0 0.0 0.00 0.00 0.00 94 1019.5
20260905091030 20 0.0 0.0 0.00 0.00 0.00 93 1019.6
20260905090033 20 0.0 0.0 0.00 0.00 0.00 94 1019.8
20260905085139 20 0.0 0.0 0.00 0.00 0.00 93 1019.9
20260905084021 20 0.0 0.0 0.00 0.00 0.00 93 1020.0
20260905083023 20 0.0 0.0 0.00 0.00 0.00 93 1020.0
20260905082107 20 0.0 0.0 0.00 0.00 0.00 93 1020.1
20260905081025 20 0.0 0.0 0.00 0.00 0.00 94 1020.3
20260905080022 20 0.0 0.0 0.00 0.00 0.00 92 1020.3
20260905075020 20 0.0 0.0 0.00 0.00 0.00 93 1020.4
20260905074017 10 0.0 0.0 0.00 0.00 0.00 93 1020.5
20260905073041 21 0.0 0.0 0.00 0.00 0.00 93 1020.5
20260905072146 21 0.0 0.0 0.00 0.00 0.00 93 1020.5
20260905071028 21 0.0 0.0 0.00 0.00 0.00 94 1020.5
20260905070031 21 0.0 0.0 0.00 0.00 0.00 93 1020.7
20260905065017 21 0.0 0.0 0.00 0.00 0.00 93 1020.8
20260905064020 21 0.0 0.0 0.00 0.00 0.00 93 1020.8
20260905063124 21 0.0 0.0 0.00 0.00 0.00 93 1020.8
20260905062028 16 0.0 0.0 0.00 0.00 0.00 93 1020.9
20260905061031 -24 0.0 0.0 0.00 0.00 0.00 93 1021.0